Find Starlink 11492

NORAD ID: 62224 Int'l Des: 2024-231 Owner: SPXS Country: US Constellation: starlink operational
LEOCIRCULAR

实时位置

正在加载3D地球...

关于 Starlink 11492

正在加载描述...

即将过境

Passes for default location (London). Set your location on the main map for personalized predictions.

高度历史

Loading altitude history...

两行轨道根数

1 62224U 24231G 26139.26957253 .00112708 00000-0 92191-3 0 9992
2 62224 53.1569 113.5816 0000953 86.0026 274.1101 15.69727246 84491
Epoch: May 19, 2026 • Age: 7 hours

当前状态

高度 360.0 km
速度 7.70 km/s
星下点 22.95°N, 161.74°W
发射日期 Dec 5, 2024
运行时间 1.4 years
类型 internet

技术详情

分类 Payload
质量 960.00 kg
干质量 910.00 kg
总质量 960.00 kg
长度 0.30 m
直径 4.10 m
跨度 29.00 m
形状 Box + pan
制造商 SPXS
平台类型 Starlink V2MD
阶段状态 In Orbit
所有者/国家 SPXS/US

Most Searched